Weather History for LLBG - November, 2013

Change the Weather History Date:

Monday, November 11, 2013

  Actual Average Record
Temperature  
Mean Temperature 72 °F -  
Max Temperature 85 °F 71 °F 86 °F (1996)
Min Temperature 58 °F 54 °F 51 °F (2005)
Cooling Degree Days 6    
Growing Degree Days 22 (Base 50)    
Moisture  
Dew Point 50 °F    
Average Humidity 46    
Maximum Humidity 68    
Minimum Humidity 17    
Precipitation  
Precipitation 0.00 in - - ()
Sea Level Pressure  
Sea Level Pressure 29.96 in    
Wind  
Wind Speed 5 mph ()    
Max Wind Speed 16 mph    
Max Gust Speed -    
Visibility 6.1 miles    
Events      
Averages and records for this station are not official NWS values.
T = Trace of Precipitation, MM = Missing Value Source: Averaged Metar Reports

Daily Weather History Graph

Daily Weather History Graph

Search for Another Location

Airport or City:

Trip Planner

Search our weather history database for the weather conditions in past years. The results will help you decide how hot, cold, wet, or windy it might be!

Date:

Astronomy

Nov. 11, 2013 Rise Set
Actual Time 6:05 AM IST 4:43 PM IST
Civil Twilight 5:39 AM IST 5:08 PM IST
Nautical Twilight 5:10 AM IST 5:38 PM IST
Astronomical Twilight 4:41 AM IST 6:06 PM IST
Moon 12:51 PM IST (11/11) No Moon Set
Length of Visible Light 11h 28m
Length of Day
10h 37m
Waxing Gibbous, 63% of the Moon is Illuminated
Nov 11
Waxing Gibbous
Nov 17
Full
Nov 25
Last Quarter
Dec 3
New
Dec 9
First Quarter

Hourly Weather History & Observations

Time (IST) Temp. Dew Point Humidity Pressure Visibility Wind Dir Wind Speed Gust Speed Precip Events Conditions
12:20 AM 62.6 °F 51.8 °F 68% 29.95 in - Variable 1.2 mph - N/A   Clear
12:50 AM 62.6 °F 51.8 °F 68% 29.95 in - Variable 3.5 mph - N/A   Clear
1:20 AM 62.6 °F 51.8 °F 68% 29.95 in - Variable 2.3 mph - N/A   Clear
1:50 AM 62.6 °F 51.8 °F 68% 29.92 in - Variable 3.5 mph - N/A   Clear
2:00 AM 63 °F 51 °F 56% 29.94 in 6 mi 3.5 mph - -  
2:20 AM 62.6 °F 50.0 °F 63% 29.92 in - Variable 2.3 mph - N/A   Clear
2:50 AM 60.8 °F 50.0 °F 68% 29.95 in - Variable 1.2 mph - N/A   Clear
3:20 AM 62.6 °F 51.8 °F 68% 29.92 in - Variable 3.5 mph - N/A   Clear
3:50 AM 62.6 °F 50.0 °F 63% 29.92 in - Variable 2.3 mph - N/A   Clear
4:20 AM 59.0 °F 48.2 °F 67% 29.95 in - Calm Calm - N/A   Clear
4:50 AM 60.8 °F 48.2 °F 63% 29.95 in - Variable 3.5 mph - N/A   Clear
5:20 AM 59.0 °F 48.2 °F 67% 29.95 in - Variable 2.3 mph - N/A   Clear
5:50 AM 59.0 °F 48.2 °F 67% 29.95 in - Calm Calm - N/A   Clear
6:20 AM 60.8 °F 50.0 °F 68% 29.95 in - Variable 2.3 mph - N/A   Clear
6:50 AM 60.8 °F 48.2 °F 63% 29.98 in - Variable 2.3 mph - N/A   Clear
7:20 AM 64.4 °F 48.2 °F 56% 29.98 in - Calm Calm - N/A   Clear
7:50 AM 68.0 °F 48.2 °F 49% 29.98 in - Calm Calm - N/A   Clear
8:00 AM 68 °F 49 °F 39% 30.00 in 6 mi Calm Calm - -  
8:20 AM 73.4 °F 48.2 °F 41% 29.98 in - Calm Calm - N/A   Clear
8:50 AM 77.0 °F 50.0 °F 39% 29.98 in - Variable 1.2 mph - N/A   Clear
9:20 AM 80.6 °F 50.0 °F 34% 29.98 in - Variable 1.2 mph - N/A   Clear
9:50 AM 80.6 °F 51.8 °F 37% 29.98 in - ESE 16.1 mph - N/A   Clear
10:20 AM 82.4 °F 51.8 °F 35% 29.98 in - ESE 15.0 mph - N/A   Clear
10:50 AM 82.4 °F 50.0 °F 32% 29.98 in - East 13.8 mph - N/A   Clear
11:20 AM 82.4 °F 50.0 °F 32% 29.95 in 6.2 mi ESE 15.0 mph - N/A   Partly Cloudy
11:50 AM 82.4 °F 48.2 °F 30% 29.95 in 6.2 mi East 12.7 mph - N/A   Partly Cloudy
12:20 PM 84.2 °F 48.2 °F 29% 29.95 in 6.2 mi ESE 12.7 mph - N/A   Partly Cloudy
12:50 PM 84.2 °F 46.4 °F 27% 29.92 in 6.2 mi East 10.4 mph - N/A   Partly Cloudy
1:20 PM 84.2 °F 48.2 °F 29% 29.92 in 6.2 mi East 11.5 mph - N/A   Partly Cloudy
1:50 PM 84.2 °F 48.2 °F 29% 29.92 in 6.2 mi ESE 13.8 mph - N/A   Partly Cloudy
2:00 PM 85 °F 47 °F 17% 29.94 in 6 mi ESE 13.8 mph - -   Scattered Clouds
2:20 PM 84.2 °F 46.4 °F 27% 29.92 in 6.2 mi ESE 11.5 mph - N/A   Partly Cloudy
2:50 PM 84.2 °F 50.0 °F 30% 29.92 in 6.2 mi ESE 13.8 mph - N/A   Partly Cloudy
3:20 PM 82.4 °F 50.0 °F 32% 29.95 in 6.2 mi ESE 15.0 mph - N/A   Partly Cloudy
3:50 PM 82.4 °F 50.0 °F 32% 29.95 in 6.2 mi ESE 13.8 mph - N/A   Partly Cloudy
4:20 PM 82.4 °F 50.0 °F 32% 29.95 in 6.2 mi East 13.8 mph - N/A   Partly Cloudy
4:50 PM 80.6 °F 50.0 °F 34% 29.95 in - East 9.2 mph - N/A   Clear
5:20 PM 78.8 °F 50.0 °F 36% 29.95 in - East 8.1 mph - N/A   Clear
5:50 PM 78.8 °F 50.0 °F 36% 29.95 in - ENE 8.1 mph - N/A   Clear
6:20 PM 77.0 °F 50.0 °F 39% 29.95 in - ENE 6.9 mph - N/A   Clear
6:50 PM 77.0 °F 50.0 °F 39% 29.95 in - East 8.1 mph - N/A   Clear
7:20 PM 75.2 °F 50.0 °F 41% 29.98 in - NNE 4.6 mph - N/A   Clear
7:50 PM 75.2 °F 50.0 °F 41% 29.98 in - Variable 3.5 mph - N/A   Clear
8:00 PM 76 °F 51 °F 30% 29.98 in 6 mi 3.5 mph - -  
8:20 PM 75.2 °F 51.8 °F 44% 29.98 in - NE 6.9 mph - N/A   Clear
8:50 PM 73.4 °F 51.8 °F 47% 29.98 in - NE 5.8 mph - N/A   Clear
9:20 PM 73.4 °F 51.8 °F 47% 29.98 in - NNE 8.1 mph - N/A   Clear
9:50 PM 73.4 °F 51.8 °F 47% 29.98 in - NE 5.8 mph - N/A   Clear
10:20 PM 73.4 °F 51.8 °F 47% 29.98 in - NE 4.6 mph - N/A   Clear
10:50 PM 73.4 °F 51.8 °F 47% 29.98 in - NE 9.2 mph - N/A   Clear
11:20 PM 71.6 °F 51.8 °F 50% 29.98 in - NNE 9.2 mph - N/A   Clear
11:50 PM 71.6 °F 51.8 °F 50% 29.98 in - NNE 8.1 mph - N/A   Clear